Time,TemperatureF,DewpointF,PressureIn,WindDirection,WindDirectionDegrees,WindSpeedMPH,WindSpeedGustMPH,Humidity,HourlyPrecipIn,Conditions,Clouds,dailyrainin,SoftwareType,DateUTC
2013-07-25 00:01:00,64.9,30.2,29.81,NE,38,0.0,0.0,27,0.00,,FEW100,0.00,VWS V14.01,2013-07-25 04:01:00,
2013-07-25 00:02:00,64.9,30.2,29.81,NE,38,0.0,0.0,27,0.00,,FEW100,0.00,VWS V14.01,2013-07-25 04:02:00,
2013-07-25 00:07:00,64.9,30.2,29.81,NE,38,0.0,0.0,27,0.00,,FEW100,0.00,VWS V14.01,2013-07-25 04:07:00,
2013-07-25 00:12:00,64.9,30.2,29.81,NE,38,0.0,0.0,27,0.00,,FEW100,0.00,VWS V14.01,2013-07-25 04:12:00,
2013-07-25 00:18:00,64.9,30.2,29.81,NE,38,0.0,0.0,27,0.00,,FEW100,0.00,VWS V14.01,2013-07-25 04:18:00,
2013-07-25 00:23:00,64.9,30.2,29.81,NE,38,0.0,0.0,27,0.00,,FEW100,0.00,VWS V14.01,2013-07-25 04:23:00,
2013-07-25 00:28:00,64.9,30.2,29.81,NE,38,0.0,0.0,27,0.00,,FEW100,0.00,VWS V14.01,2013-07-25 04:28:00,
2013-07-25 00:33:00,64.9,30.2,29.81,NE,38,0.0,0.0,27,0.00,,FEW100,0.00,VWS V14.01,2013-07-25 04:33:00,
2013-07-25 00:38:00,64.9,30.2,29.81,NE,38,3.1,3.1,27,0.00,,FEW100,0.00,VWS V14.01,2013-07-25 04:38:00,
2013-07-25 00:43:00,64.9,30.2,29.81,NE,38,3.1,3.1,27,0.00,,FEW100,0.00,VWS V14.01,2013-07-25 04:43:00,
2013-07-25 00:48:00,64.9,30.2,29.81,NE,37,2.7,2.7,27,0.00,,FEW100,0.00,VWS V14.01,2013-07-25 04:48:00,
2013-07-25 00:53:00,64.9,30.2,29.84,NE,48,3.1,4.0,27,0.00,,FEW100,0.00,VWS V14.01,2013-07-25 04:53:00,
2013-07-25 00:58:00,64.9,30.2,29.84,NE,48,3.1,3.1,27,0.00,,FEW100,0.00,VWS V14.01,2013-07-25 04:58:00,
2013-07-25 01:03:00,64.9,30.2,29.84,ENE,59,3.1,3.1,27,0.00,,CLR,0.00,VWS V14.01,2013-07-25 05:03:00,
2013-07-25 01:08:00,64.9,30.2,29.84,North,10,0.0,3.1,27,0.00,,CLR,0.00,VWS V14.01,2013-07-25 05:08:00,
2013-07-25 01:14:00,64.9,30.2,29.84,NNE,32,2.2,2.2,27,0.00,,CLR,0.00,VWS V14.01,2013-07-25 05:14:00,
2013-07-25 01:19:00,64.9,30.2,29.84,North,9,2.7,2.7,27,0.00,,CLR,0.00,VWS V14.01,2013-07-25 05:19:00,
2013-07-25 01:24:00,64.9,30.2,29.84,North,2,2.2,2.2,27,0.00,,CLR,0.00,VWS V14.01,2013-07-25 05:24:00,
2013-07-25 01:29:00,64.9,30.2,29.84,North,2,2.2,2.7,27,0.00,,CLR,0.00,VWS V14.01,2013-07-25 05:29:00,
2013-07-25 01:34:00,64.9,30.2,29.81,North,4,2.2,2.2,27,0.00,,CLR,0.00,VWS V14.01,2013-07-25 05:34:00,
2013-07-25 01:39:00,64.9,30.2,29.81,NNE,15,3.1,3.1,27,0.00,,CLR,0.00,VWS V14.01,2013-07-25 05:39:00,
2013-07-25 01:44:00,64.9,30.2,29.81,NNE,19,2.2,2.2,27,0.00,,CLR,0.00,VWS V14.01,2013-07-25 05:44:00,
2013-07-25 01:49:00,64.9,30.2,29.81,NNE,19,2.7,2.7,27,0.00,,CLR,0.00,VWS V14.01,2013-07-25 05:49:00,
2013-07-25 01:54:00,64.9,30.2,29.81,NNE,19,2.2,2.2,27,0.00,,CLR,0.00,VWS V14.01,2013-07-25 05:54:00,
2013-07-25 01:59:00,64.9,30.2,29.81,NNE,19,2.7,2.7,27,0.00,,CLR,0.00,VWS V14.01,2013-07-25 05:59:00,
2013-07-25 02:04:00,64.9,30.2,29.81,NNE,19,2.7,2.7,27,0.00,,SCT075,0.00,VWS V14.01,2013-07-25 06:04:00,
2013-07-25 02:09:00,64.9,30.2,29.81,NNE,19,3.1,3.1,27,0.00,,SCT075,0.00,VWS V14.01,2013-07-25 06:09:00,
2013-07-25 02:14:00,64.9,30.2,29.81,NNE,19,2.2,2.2,27,0.00,,SCT075,0.00,VWS V14.01,2013-07-25 06:14:00,
2013-07-25 02:19:00,64.9,30.2,29.81,NNE,30,2.7,2.7,27,0.00,,SCT075,0.00,VWS V14.01,2013-07-25 06:19:00,
2013-07-25 02:24:00,64.9,30.2,29.81,NNE,30,2.7,2.7,27,0.00,,SCT075,0.00,VWS V14.01,2013-07-25 06:24:00,
2013-07-25 02:30:00,64.9,30.2,29.81,NE,34,3.6,3.6,27,0.00,,SCT075,0.00,VWS V14.01,2013-07-25 06:30:00,
2013-07-25 02:35:00,64.9,30.2,29.81,NNE,27,3.1,3.1,27,0.00,,SCT075,0.00,VWS V14.01,2013-07-25 06:35:00,
2013-07-25 02:40:00,64.9,30.2,29.81,North,7,3.1,3.1,27,0.00,,SCT075,0.00,VWS V14.01,2013-07-25 06:40:00,
2013-07-25 02:45:00,64.9,30.2,29.81,North,9,2.7,2.7,27,0.00,,SCT075,0.00,VWS V14.01,2013-07-25 06:45:00,
2013-07-25 02:50:00,64.9,30.2,29.81,North,9,2.7,2.7,27,0.00,,SCT075,0.00,VWS V14.01,2013-07-25 06:50:00,
2013-07-25 02:55:00,64.9,30.2,29.81,North,2,2.2,2.2,27,0.00,,SCT075,0.00,VWS V14.01,2013-07-25 06:55:00,
2013-07-25 03:00:00,64.9,30.2,29.81,North,2,0.0,0.0,27,0.00,,SCT075,0.00,VWS V14.01,2013-07-25 07:00:00,
2013-07-25 03:05:00,64.9,30.2,29.81,North,2,0.0,0.0,27,0.00,,CLR,0.00,VWS V14.01,2013-07-25 07:05:00,
2013-07-25 03:10:00,64.9,30.2,29.81,North,2,0.0,0.0,27,0.00,,CLR,0.00,VWS V14.01,2013-07-25 07:10:00,
2013-07-25 03:15:00,64.9,30.2,29.81,North,2,0.0,0.0,27,0.00,,CLR,0.00,VWS V14.01,2013-07-25 07:15:00,
2013-07-25 03:20:00,64.9,30.2,29.78,North,2,2.7,2.7,27,0.00,,CLR,0.00,VWS V14.01,2013-07-25 07:20:00,
2013-07-25 03:25:00,64.9,30.2,29.78,North,2,0.0,2.7,27,0.00,,CLR,0.00,VWS V14.01,2013-07-25 07:25:00,
2013-07-25 03:30:00,64.9,30.2,29.78,North,2,0.0,0.0,27,0.00,,CLR,0.00,VWS V14.01,2013-07-25 07:30:00,
2013-07-25 03:35:00,64.9,30.2,29.81,North,2,0.0,0.0,27,0.00,,CLR,0.00,VWS V14.01,2013-07-25 07:35:00,
2013-07-25 03:40:00,64.9,30.2,29.81,North,2,2.7,2.7,27,0.00,,CLR,0.00,VWS V14.01,2013-07-25 07:40:00,
2013-07-25 03:45:00,64.9,30.2,29.81,North,2,2.2,2.2,27,0.00,,CLR,0.00,VWS V14.01,2013-07-25 07:45:00,
2013-07-25 03:50:00,64.9,30.2,29.81,North,2,2.2,2.2,27,0.00,,CLR,0.00,VWS V14.01,2013-07-25 07:50:00,
2013-07-25 03:55:00,64.9,30.2,29.81,North,2,2.7,2.7,27,0.00,,CLR,0.00,VWS V14.01,2013-07-25 07:55:00,
2013-07-25 04:00:00,64.9,30.2,29.81,North,2,2.7,2.7,27,0.00,,CLR,0.00,VWS V14.01,2013-07-25 08:00:00,
2013-07-25 04:05:00,64.9,30.2,29.81,North,2,2.7,2.7,27,0.00,,SCT050,0.00,VWS V14.01,2013-07-25 08:05:00,
2013-07-25 04:10:00,64.9,30.2,29.81,NNE,12,0.0,0.0,27,0.00,,SCT050,0.00,VWS V14.01,2013-07-25 08:10:00,
2013-07-25 04:15:00,64.9,30.2,29.81,NNE,12,2.2,2.2,27,0.00,,SCT050,0.00,VWS V14.01,2013-07-25 08:15:00,
2013-07-25 04:20:00,64.9,30.2,29.81,NNE,12,2.7,2.7,27,0.00,,SCT050,0.00,VWS V14.01,2013-07-25 08:20:00,
2013-07-25 04:25:00,64.9,30.2,29.81,NNE,12,2.7,2.7,27,0.00,,SCT050,0.00,VWS V14.01,2013-07-25 08:25:00,
2013-07-25 04:30:00,64.9,30.2,29.81,NNE,12,2.7,2.7,27,0.00,,SCT050,0.00,VWS V14.01,2013-07-25 08:30:00,
2013-07-25 04:36:00,64.9,30.2,29.81,NNE,12,0.0,2.2,27,0.00,,SCT050,0.00,VWS V14.01,2013-07-25 08:36:00,
2013-07-25 04:41:00,64.9,30.2,29.81,NNE,12,0.0,0.0,27,0.00,,SCT050,0.00,VWS V14.01,2013-07-25 08:41:00,
2013-07-25 04:46:00,64.9,30.2,29.81,NNE,12,2.7,2.7,27,0.00,,SCT050,0.00,VWS V14.01,2013-07-25 08:46:00,
2013-07-25 04:51:00,64.9,30.2,29.81,NNE,12,0.0,0.0,27,0.00,,SCT050,0.00,VWS V14.01,2013-07-25 08:51:00,
2013-07-25 04:56:00,64.9,30.2,29.81,NNE,12,2.7,2.7,27,0.00,,SCT050,0.00,VWS V14.01,2013-07-25 08:56:00,
2013-07-25 05:02:00,64.9,30.2,29.81,NNE,12,3.6,3.6,27,0.00,,CLR,0.00,VWS V14.01,2013-07-25 09:02:00,
2013-07-25 05:07:00,64.9,30.2,29.81,NNE,12,2.7,2.7,27,0.00,,CLR,0.00,VWS V14.01,2013-07-25 09:07:00,
2013-07-25 05:12:00,64.9,30.2,29.81,NNE,12,3.1,3.1,27,0.00,,CLR,0.00,VWS V14.01,2013-07-25 09:12:00,
2013-07-25 05:17:00,64.9,30.2,29.81,NNE,12,3.6,3.6,27,0.00,,CLR,0.00,VWS V14.01,2013-07-25 09:17:00,
2013-07-25 05:22:00,64.9,30.2,29.81,NNE,12,2.7,2.7,27,0.00,,CLR,0.00,VWS V14.01,2013-07-25 09:22:00,
2013-07-25 05:27:00,64.9,30.2,29.81,NNE,12,3.1,3.1,27,0.00,,CLR,0.00,VWS V14.01,2013-07-25 09:27:00,
2013-07-25 05:33:00,64.9,30.2,29.81,NNE,12,3.1,3.1,27,0.00,,CLR,0.00,VWS V14.01,2013-07-25 09:33:00,
2013-07-25 05:38:00,64.9,30.2,29.81,NNE,12,3.6,3.6,27,0.00,,CLR,0.00,VWS V14.01,2013-07-25 09:38:00,
2013-07-25 05:43:00,64.9,30.2,29.81,NE,36,3.6,3.6,27,0.00,,CLR,0.00,VWS V14.01,2013-07-25 09:43:00,
2013-07-25 05:48:00,64.9,30.2,29.81,NE,36,4.0,4.0,27,0.00,,CLR,0.00,VWS V14.01,2013-07-25 09:48:00,
2013-07-25 05:53:00,64.9,30.2,29.81,NE,36,4.0,4.0,27,0.00,,CLR,0.00,VWS V14.01,2013-07-25 09:53:00,
2013-07-25 05:58:00,64.9,30.2,29.81,NE,36,3.1,3.6,27,0.00,,CLR,0.00,VWS V14.01,2013-07-25 09:58:00,
2013-07-25 06:03:00,64.9,30.2,29.81,NE,36,4.0,4.0,27,0.00,,CLR,0.00,VWS V14.01,2013-07-25 10:03:00,
2013-07-25 06:08:00,64.9,30.2,29.81,NE,36,4.0,4.0,27,0.00,,CLR,0.00,VWS V14.01,2013-07-25 10:08:00,
2013-07-25 06:13:00,64.9,30.2,29.81,NE,36,3.1,3.1,27,0.00,,CLR,0.00,VWS V14.01,2013-07-25 10:13:00,
2013-07-25 06:19:00,64.9,30.2,29.81,NE,36,3.6,3.6,27,0.00,,CLR,0.00,VWS V14.01,2013-07-25 10:19:00,
2013-07-25 06:24:00,64.9,30.2,29.81,NE,36,3.1,3.6,27,0.00,,CLR,0.00,VWS V14.01,2013-07-25 10:24:00,
2013-07-25 06:29:00,64.9,30.2,29.81,NE,36,4.0,4.0,27,0.00,,CLR,0.00,VWS V14.01,2013-07-25 10:29:00,
2013-07-25 06:34:00,64.9,30.2,29.81,NNE,28,3.6,4.0,27,0.00,,CLR,0.00,VWS V14.01,2013-07-25 10:34:00,
2013-07-25 06:39:00,64.9,30.2,29.81,NE,34,2.2,3.1,27,0.00,,CLR,0.00,VWS V14.01,2013-07-25 10:39:00,
2013-07-25 06:44:00,64.9,30.2,29.81,NE,34,2.2,2.2,27,0.00,,CLR,0.00,VWS V14.01,2013-07-25 10:44:00,
2013-07-25 06:49:00,64.9,30.2,29.81,NE,34,2.2,2.7,27,0.00,,CLR,0.00,VWS V14.01,2013-07-25 10:49:00,
2013-07-25 06:54:00,64.9,30.2,29.84,NE,34,4.0,4.0,27,0.00,,CLR,0.00,VWS V14.01,2013-07-25 10:54:00,
2013-07-25 06:59:00,64.9,30.2,29.84,NE,34,4.0,4.0,27,0.00,,CLR,0.00,VWS V14.01,2013-07-25 10:59:00,
2013-07-25 07:04:00,64.9,30.2,29.84,NE,34,3.6,4.0,27,0.00,,,0.00,VWS V14.01,2013-07-25 11:04:00,
2013-07-25 07:09:00,64.9,30.2,29.84,NE,34,4.5,4.5,27,0.00,,,0.00,VWS V14.01,2013-07-25 11:09:00,
2013-07-25 07:14:00,64.9,30.2,29.84,NNE,32,4.0,4.0,27,0.00,,,0.00,VWS V14.01,2013-07-25 11:14:00,
2013-07-25 07:19:00,64.9,30.2,29.84,NE,37,4.9,4.9,27,0.00,,,0.00,VWS V14.01,2013-07-25 11:19:00,
2013-07-25 07:24:00,64.9,30.2,29.84,NE,37,4.5,4.5,27,0.00,,,0.00,VWS V14.01,2013-07-25 11:24:00,
2013-07-25 07:29:00,64.9,30.2,29.84,NE,37,3.1,4.0,27,0.00,,,0.00,VWS V14.01,2013-07-25 11:29:00,
2013-07-25 07:35:00,64.9,30.2,29.84,NE,37,3.6,4.0,27,0.00,,,0.00,VWS V14.01,2013-07-25 11:35:00,
2013-07-25 07:40:00,64.9,30.2,29.84,NE,37,3.6,3.6,27,0.00,,,0.00,VWS V14.01,2013-07-25 11:40:00,
2013-07-25 07:45:00,64.9,30.2,29.84,NE,37,3.1,3.1,27,0.00,,,0.00,VWS V14.01,2013-07-25 11:45:00,
2013-07-25 07:50:00,64.9,30.2,29.84,NE,37,3.1,3.1,27,0.00,,,0.00,VWS V14.01,2013-07-25 11:50:00,
2013-07-25 07:55:00,64.9,30.2,29.84,NNE,27,3.6,3.6,27,0.00,,,0.00,VWS V14.01,2013-07-25 11:55:00,
2013-07-25 08:00:00,64.9,30.2,29.84,NNE,27,2.7,2.7,27,0.00,,,0.00,VWS V14.01,2013-07-25 12:00:00,
2013-07-25 08:05:00,64.9,30.2,29.84,NNE,27,2.2,2.2,27,0.00,,OVC005,0.00,VWS V14.01,2013-07-25 12:05:00,
2013-07-25 08:10:00,64.9,30.2,29.84,NNE,27,0.0,0.0,27,0.00,,OVC005,0.00,VWS V14.01,2013-07-25 12:10:00,
2013-07-25 08:15:00,64.9,30.2,29.84,NNE,27,2.7,2.7,27,0.00,,OVC005,0.00,VWS V14.01,2013-07-25 12:15:00,
2013-07-25 08:20:00,64.9,30.2,29.84,NNE,27,0.0,0.0,27,0.00,,OVC005,0.00,VWS V14.01,2013-07-25 12:20:00,
2013-07-25 08:26:00,64.9,30.2,29.84,NNE,27,0.0,0.0,27,0.00,,OVC005,0.00,VWS V14.01,2013-07-25 12:26:00,
2013-07-25 08:31:00,64.9,30.2,29.84,NNE,27,0.0,0.0,27,0.00,,OVC005,0.00,VWS V14.01,2013-07-25 12:31:00,
2013-07-25 08:36:00,64.9,30.2,29.84,NNE,27,2.2,2.2,27,0.00,,OVC005,0.00,VWS V14.01,2013-07-25 12:36:00,
2013-07-25 08:41:00,64.9,30.2,29.84,NNE,27,0.0,0.0,27,0.00,,OVC005,0.00,VWS V14.01,2013-07-25 12:41:00,
2013-07-25 08:46:00,64.9,30.2,29.84,NNE,27,0.0,0.0,27,0.00,,OVC005,0.00,VWS V14.01,2013-07-25 12:46:00,
2013-07-25 08:51:00,64.9,30.2,29.84,NNE,27,0.0,0.0,27,0.00,,OVC005,0.00,VWS V14.01,2013-07-25 12:51:00,
2013-07-25 08:57:00,64.9,30.2,29.84,NNE,27,0.0,0.0,27,0.00,,OVC005,0.00,VWS V14.01,2013-07-25 12:57:00,
2013-07-25 09:02:00,64.9,30.2,29.84,NNE,27,0.0,0.0,27,0.00,,OVC005,0.00,VWS V14.01,2013-07-25 13:02:00,
2013-07-25 09:07:00,64.9,30.2,29.87,NNE,27,0.0,0.0,27,0.00,,OVC005,0.00,VWS V14.01,2013-07-25 13:07:00,
2013-07-25 09:12:00,64.9,30.2,29.87,NNE,27,0.0,0.0,27,0.00,,OVC005,0.00,VWS V14.01,2013-07-25 13:12:00,
2013-07-25 09:17:00,64.9,30.2,29.87,WNW,285,2.2,2.2,27,0.00,,OVC005,0.00,VWS V14.01,2013-07-25 13:17:00,
2013-07-25 09:22:00,64.9,30.2,29.87,WNW,285,0.0,0.0,27,0.00,,OVC005,0.00,VWS V14.01,2013-07-25 13:22:00,
2013-07-25 09:27:00,64.9,30.2,29.87,WNW,285,0.0,0.0,27,0.00,,OVC005,0.00,VWS V14.01,2013-07-25 13:27:00,
2013-07-25 09:32:00,64.9,30.2,29.87,WNW,285,2.7,2.7,27,0.00,,OVC005,0.00,VWS V14.01,2013-07-25 13:32:00,
2013-07-25 09:37:00,64.9,30.2,29.87,SW,235,0.0,0.0,27,0.00,,OVC005,0.00,VWS V14.01,2013-07-25 13:37:00,
2013-07-25 09:42:00,64.9,30.2,29.87,SE,143,0.0,0.0,27,0.00,,OVC005,0.00,VWS V14.01,2013-07-25 13:42:00,
2013-07-25 09:47:00,64.9,30.2,29.87,SE,140,3.1,3.1,27,0.00,,OVC005,0.00,VWS V14.01,2013-07-25 13:47:00,
2013-07-25 09:52:00,64.9,30.2,29.87,SE,140,3.1,3.1,27,0.00,,OVC005,0.00,VWS V14.01,2013-07-25 13:52:00,
2013-07-25 09:58:00,64.9,30.2,29.87,WSW,240,0.0,0.0,27,0.00,,OVC005,0.00,VWS V14.01,2013-07-25 13:58:00,
2013-07-25 10:03:00,64.9,30.2,29.87,South,170,0.0,0.0,27,0.00,,OVC005,0.00,VWS V14.01,2013-07-25 14:03:00,
2013-07-25 10:08:00,64.9,30.2,29.87,WNW,282,2.7,2.7,27,0.00,,OVC005,0.00,VWS V14.01,2013-07-25 14:08:00,
2013-07-25 10:13:00,64.9,30.2,29.87,WNW,282,0.0,0.0,27,0.00,,OVC005,0.00,VWS V14.01,2013-07-25 14:13:00,
2013-07-25 10:18:00,64.9,30.2,29.87,SW,216,3.6,3.6,27,0.00,,OVC005,0.00,VWS V14.01,2013-07-25 14:18:00,
2013-07-25 10:23:00,64.9,30.2,29.87,SSW,195,3.1,3.1,27,0.00,,OVC005,0.00,VWS V14.01,2013-07-25 14:23:00,
2013-07-25 10:28:00,64.9,30.2,29.87,SW,236,2.7,2.7,27,0.00,,OVC005,0.00,VWS V14.01,2013-07-25 14:28:00,
2013-07-25 10:34:00,64.9,30.2,29.87,West,281,2.7,2.7,27,0.00,,OVC005,0.00,VWS V14.01,2013-07-25 14:34:00,
2013-07-25 10:39:00,64.9,30.2,29.87,South,191,2.7,2.7,27,0.00,,OVC005,0.00,VWS V14.01,2013-07-25 14:39:00,
2013-07-25 10:44:00,64.9,30.2,29.87,South,184,3.1,3.1,27,0.00,,OVC005,0.00,VWS V14.01,2013-07-25 14:44:00,
2013-07-25 10:49:00,64.9,30.2,29.87,SSW,200,2.7,2.7,27,0.00,,OVC005,0.00,VWS V14.01,2013-07-25 14:49:00,
2013-07-25 10:54:00,64.9,30.2,29.87,South,182,5.4,5.4,27,0.00,,OVC005,0.00,VWS V14.01,2013-07-25 14:54:00,
2013-07-25 10:59:00,64.9,30.2,29.87,SSW,204,4.9,4.9,27,0.00,,OVC005,0.00,VWS V14.01,2013-07-25 14:59:00,
2013-07-25 11:04:00,64.9,30.2,29.87,SSW,194,2.7,3.1,27,0.00,,SCT011,0.00,VWS V14.01,2013-07-25 15:04:00,
2013-07-25 11:09:00,64.9,30.2,29.87,SSE,165,6.3,6.3,27,0.00,,SCT011,0.00,VWS V14.01,2013-07-25 15:09:00,
2013-07-25 11:14:00,64.9,30.2,29.87,South,172,0.0,2.7,27,0.00,,SCT011,0.00,VWS V14.01,2013-07-25 15:14:00,
2013-07-25 11:19:00,64.9,30.2,29.87,WSW,245,0.0,0.0,27,0.00,,SCT011,0.00,VWS V14.01,2013-07-25 15:19:00,
2013-07-25 11:24:00,64.9,30.2,29.87,WNW,294,3.1,3.1,27,0.00,,SCT011,0.00,VWS V14.01,2013-07-25 15:24:00,
2013-07-25 11:29:00,64.9,30.2,29.87,SW,225,4.9,4.9,27,0.00,,SCT011,0.00,VWS V14.01,2013-07-25 15:29:00,
2013-07-25 11:34:00,64.9,30.2,29.87,West,266,3.1,3.1,27,0.00,,SCT011,0.00,VWS V14.01,2013-07-25 15:34:00,
2013-07-25 11:39:00,64.9,30.2,29.87,SW,230,2.2,2.2,27,0.00,,SCT011,0.00,VWS V14.01,2013-07-25 15:39:00,
2013-07-25 11:44:00,64.9,30.2,29.87,NNW,341,2.2,2.2,27,0.00,,SCT011,0.00,VWS V14.01,2013-07-25 15:44:00,
2013-07-25 11:49:00,64.9,30.2,29.87,South,187,2.2,2.2,27,0.00,,SCT011,0.00,VWS V14.01,2013-07-25 15:49:00,
2013-07-25 11:54:00,64.9,30.2,29.87,West,278,2.2,2.2,27,0.00,,SCT011,0.00,VWS V14.01,2013-07-25 15:54:00,
2013-07-25 11:59:00,64.9,30.2,29.87,SW,214,0.0,0.0,27,0.00,,SCT011,0.00,VWS V14.01,2013-07-25 15:59:00,
2013-07-25 12:05:00,64.9,30.2,29.87,NNW,344,3.1,3.1,27,0.00,,SCT011,0.00,VWS V14.01,2013-07-25 16:05:00,
2013-07-25 12:10:00,64.9,30.2,29.87,WSW,245,0.0,2.7,27,0.00,,SCT011,0.00,VWS V14.01,2013-07-25 16:10:00,
2013-07-25 12:15:00,64.9,30.2,29.90,SW,225,2.2,2.2,27,0.00,,SCT011,0.00,VWS V14.01,2013-07-25 16:15:00,
2013-07-25 12:20:00,64.9,30.2,29.90,SW,214,3.1,3.6,27,0.00,,SCT011,0.00,VWS V14.01,2013-07-25 16:20:00,
2013-07-25 12:25:00,64.9,30.2,29.90,SW,232,0.0,0.0,27,0.00,,SCT011,0.00,VWS V14.01,2013-07-25 16:25:00,
2013-07-25 12:30:00,64.9,30.2,29.90,SW,220,2.2,2.2,27,0.00,,SCT011,0.00,VWS V14.01,2013-07-25 16:30:00,
2013-07-25 12:35:00,64.9,30.2,29.87,South,185,3.1,3.1,27,0.00,,SCT011,0.00,VWS V14.01,2013-07-25 16:35:00,
2013-07-25 12:40:00,64.9,30.2,29.87,South,174,3.1,3.1,27,0.00,,SCT011,0.00,VWS V14.01,2013-07-25 16:40:00,
2013-07-25 12:45:00,64.9,30.2,29.87,SW,219,3.6,3.6,27,0.00,,SCT011,0.00,VWS V14.01,2013-07-25 16:45:00,
2013-07-25 12:50:00,64.9,30.2,29.87,SW,232,2.7,2.7,27,0.00,,SCT011,0.00,VWS V14.01,2013-07-25 16:50:00,
2013-07-25 12:56:00,64.9,30.2,29.90,WSW,257,2.7,2.7,27,0.00,,SCT011,0.00,VWS V14.01,2013-07-25 16:56:00,
2013-07-25 13:01:00,64.9,30.2,29.90,South,170,0.0,0.0,27,0.00,,FEW029,0.00,VWS V14.01,2013-07-25 17:01:00,
2013-07-25 13:06:00,64.9,30.2,29.90,SW,218,2.2,2.2,27,0.00,,FEW029,0.00,VWS V14.01,2013-07-25 17:06:00,
2013-07-25 13:11:00,64.9,30.2,29.90,West,267,3.1,3.1,27,0.00,,FEW029,0.00,VWS V14.01,2013-07-25 17:11:00,
2013-07-25 13:16:00,64.9,30.2,29.90,SSW,195,2.7,2.7,27,0.00,,FEW029,0.00,VWS V14.01,2013-07-25 17:16:00,
2013-07-25 13:21:00,64.9,30.2,29.90,WSW,249,3.1,3.1,27,0.00,,FEW029,0.00,VWS V14.01,2013-07-25 17:21:00,
2013-07-25 13:26:00,64.9,30.2,29.90,WSW,238,0.0,0.0,27,0.00,,FEW029,0.00,VWS V14.01,2013-07-25 17:26:00,
2013-07-25 13:31:00,64.9,30.2,29.90,West,267,4.0,4.0,27,0.00,,FEW029,0.00,VWS V14.01,2013-07-25 17:31:00,
2013-07-25 13:37:00,64.9,30.2,29.90,East,88,3.1,3.1,27,0.00,,FEW029,0.00,VWS V14.01,2013-07-25 17:37:00,
2013-07-25 13:42:00,64.9,30.2,29.90,SSW,201,2.7,2.7,27,0.00,,FEW029,0.00,VWS V14.01,2013-07-25 17:42:00,
2013-07-25 13:47:00,64.9,30.2,29.90,SW,227,2.7,2.7,27,0.00,,FEW029,0.00,VWS V14.01,2013-07-25 17:47:00,
2013-07-25 13:52:00,64.9,30.2,29.90,West,272,2.7,2.7,27,0.00,,FEW029,0.00,VWS V14.01,2013-07-25 17:52:00,
2013-07-25 13:57:00,64.9,30.2,29.90,West,274,5.4,5.4,27,0.00,,FEW029,0.00,VWS V14.01,2013-07-25 17:57:00,
2013-07-25 14:02:00,64.9,30.2,29.90,South,189,2.7,2.7,27,0.00,,CLR,0.00,VWS V14.01,2013-07-25 18:02:00,
2013-07-25 14:07:00,64.9,30.2,29.90,SW,231,2.2,2.2,27,0.00,,CLR,0.00,VWS V14.01,2013-07-25 18:07:00,
2013-07-25 14:12:00,64.9,30.2,29.90,East,91,2.2,2.2,27,0.00,,CLR,0.00,VWS V14.01,2013-07-25 18:12:00,
2013-07-25 14:17:00,64.9,30.2,29.90,WSW,243,3.1,3.1,27,0.00,,CLR,0.00,VWS V14.01,2013-07-25 18:17:00,
2013-07-25 14:22:00,64.9,30.2,29.90,SW,229,2.7,2.7,27,0.00,,CLR,0.00,VWS V14.01,2013-07-25 18:22:00,
2013-07-25 14:27:00,64.9,30.2,29.90,NNE,20,3.1,3.1,27,0.00,,CLR,0.00,VWS V14.01,2013-07-25 18:27:00,
2013-07-25 14:33:00,64.9,30.2,29.90,West,273,4.9,4.9,27,0.00,,CLR,0.00,VWS V14.01,2013-07-25 18:33:00,
2013-07-25 14:38:00,64.9,30.2,29.90,WSW,237,3.6,3.6,27,0.00,,CLR,0.00,VWS V14.01,2013-07-25 18:38:00,
2013-07-25 14:43:00,64.9,30.2,29.90,SSE,164,5.4,5.4,27,0.00,,CLR,0.00,VWS V14.01,2013-07-25 18:43:00,
2013-07-25 14:48:00,64.9,30.2,29.90,SE,143,2.2,2.2,27,0.00,,CLR,0.00,VWS V14.01,2013-07-25 18:48:00,
2013-07-25 14:53:00,64.9,30.2,29.90,SSW,192,3.1,3.1,27,0.00,,CLR,0.00,VWS V14.01,2013-07-25 18:53:00,
2013-07-25 14:58:00,64.9,30.2,29.90,SSW,197,0.0,0.0,27,0.00,,CLR,0.00,VWS V14.01,2013-07-25 18:58:00,
2013-07-25 15:03:00,64.9,30.2,29.90,WSW,254,0.0,0.0,27,0.00,,CLR,0.00,VWS V14.01,2013-07-25 19:03:00,
2013-07-25 15:08:00,64.9,30.2,29.90,WSW,240,3.6,3.6,27,0.00,,CLR,0.00,VWS V14.01,2013-07-25 19:08:00,
2013-07-25 15:13:00,64.9,30.2,29.90,West,265,0.0,0.0,27,0.00,,CLR,0.00,VWS V14.01,2013-07-25 19:13:00,
2013-07-25 15:18:00,64.9,30.2,29.90,East,92,2.7,4.0,27,0.00,,CLR,0.00,VWS V14.01,2013-07-25 19:18:00,
2013-07-25 15:23:00,64.9,30.2,29.87,West,264,2.2,2.2,27,0.00,,CLR,0.00,VWS V14.01,2013-07-25 19:23:00,
2013-07-25 15:29:00,64.9,30.2,29.87,SW,224,2.2,2.7,27,0.00,,CLR,0.00,VWS V14.01,2013-07-25 19:29:00,
2013-07-25 15:34:00,64.9,30.2,29.90,South,183,3.1,3.1,27,0.00,,CLR,0.00,VWS V14.01,2013-07-25 19:34:00,
2013-07-25 15:39:00,64.9,30.2,29.90,SW,229,0.0,0.0,27,0.00,,CLR,0.00,VWS V14.01,2013-07-25 19:39:00,
2013-07-25 15:44:00,64.9,30.2,29.90,WSW,252,0.0,0.0,27,0.00,,CLR,0.00,VWS V14.01,2013-07-25 19:44:00,
2013-07-25 15:49:00,64.9,30.2,29.90,WSW,250,2.7,2.7,27,0.00,,CLR,0.00,VWS V14.01,2013-07-25 19:49:00,
2013-07-25 15:54:00,64.9,30.2,29.90,WSW,256,3.6,3.6,27,0.00,,CLR,0.00,VWS V14.01,2013-07-25 19:54:00,
2013-07-25 15:59:00,64.9,30.2,29.90,WNW,301,2.7,2.7,27,0.00,,CLR,0.00,VWS V14.01,2013-07-25 19:59:00,
2013-07-25 16:04:00,64.9,30.2,29.90,WSW,243,3.1,4.9,27,0.00,,CLR,0.00,VWS V14.01,2013-07-25 20:04:00,
2013-07-25 16:09:00,64.9,30.2,29.90,West,260,0.0,0.0,27,0.00,,CLR,0.00,VWS V14.01,2013-07-25 20:09:00,
2013-07-25 16:14:00,64.9,30.2,29.90,East,91,2.7,3.1,27,0.00,,CLR,0.00,VWS V14.01,2013-07-25 20:14:00,
2013-07-25 16:19:00,64.9,30.2,29.90,SSW,204,2.7,2.7,27,0.00,,CLR,0.00,VWS V14.01,2013-07-25 20:19:00,
2013-07-25 16:25:00,64.9,30.2,29.90,SSW,202,0.0,0.0,27,0.00,,CLR,0.00,VWS V14.01,2013-07-25 20:25:00,
2013-07-25 16:30:00,64.9,30.2,29.90,South,186,0.0,0.0,27,0.00,,CLR,0.00,VWS V14.01,2013-07-25 20:30:00,
2013-07-25 16:35:00,64.9,30.2,29.90,SW,227,0.0,0.0,27,0.00,,CLR,0.00,VWS V14.01,2013-07-25 20:35:00,
2013-07-25 16:40:00,64.9,30.2,29.90,SW,227,0.0,0.0,27,0.00,,CLR,0.00,VWS V14.01,2013-07-25 20:40:00,
2013-07-25 16:45:00,64.9,30.2,29.90,SW,227,0.0,0.0,27,0.04,,CLR,0.04,VWS V14.01,2013-07-25 20:45:00,
2013-07-25 16:50:00,64.9,30.2,29.90,SW,225,0.0,0.0,27,0.04,,CLR,0.04,VWS V14.01,2013-07-25 20:50:00,
2013-07-25 16:55:00,74.8,25.7,29.90,SSE,163,3.1,3.1,16,0.04,,CLR,0.04,VWS V14.01,2013-07-25 20:55:00,
2013-07-25 17:00:00,74.8,25.7,29.90,SW,224,4.0,4.0,16,0.04,,CLR,0.04,VWS V14.01,2013-07-25 21:00:00,
2013-07-25 17:05:00,74.8,25.7,29.90,West,259,0.0,0.0,16,0.04,,CLR,0.04,VWS V14.01,2013-07-25 21:05:00,
2013-07-25 17:11:00,74.8,25.7,29.90,SW,226,2.2,2.7,16,0.04,,CLR,0.04,VWS V14.01,2013-07-25 21:11:00,
2013-07-25 17:16:00,74.8,25.7,29.90,WNW,297,2.2,2.2,16,0.04,,CLR,0.04,VWS V14.01,2013-07-25 21:16:00,
2013-07-25 17:21:00,74.8,25.7,29.90,SSW,206,0.0,0.0,16,0.04,,CLR,0.04,VWS V14.01,2013-07-25 21:21:00,
2013-07-25 17:26:00,74.8,25.7,29.90,SSW,206,0.0,0.0,16,0.04,,CLR,0.04,VWS V14.01,2013-07-25 21:26:00,
2013-07-25 17:31:00,74.8,25.7,29.90,SE,145,0.0,0.0,16,0.04,,CLR,0.04,VWS V14.01,2013-07-25 21:31:00,
2013-07-25 17:36:00,74.8,25.7,29.90,SE,145,2.2,2.2,16,0.04,,CLR,0.04,VWS V14.01,2013-07-25 21:36:00,
2013-07-25 17:41:00,74.8,25.7,29.90,NE,52,3.6,3.6,16,0.04,,CLR,0.04,VWS V14.01,2013-07-25 21:41:00,
2013-07-25 17:46:00,74.8,25.7,29.90,SSE,147,0.0,0.0,16,0.00,,CLR,0.04,VWS V14.01,2013-07-25 21:46:00,
2013-07-25 17:52:00,74.8,25.7,29.90,SE,124,0.0,0.0,16,0.00,,CLR,0.04,VWS V14.01,2013-07-25 21:52:00,
2013-07-25 17:57:00,74.8,25.7,29.90,ESE,122,2.2,2.2,16,0.00,,CLR,0.04,VWS V14.01,2013-07-25 21:57:00,
2013-07-25 18:02:00,74.8,25.7,29.90,ESE,122,0.0,0.0,16,0.00,,CLR,0.04,VWS V14.01,2013-07-25 22:02:00,
2013-07-25 18:07:00,74.8,25.7,29.90,ESE,122,0.0,0.0,16,0.00,,CLR,0.04,VWS V14.01,2013-07-25 22:07:00,
2013-07-25 18:12:00,74.8,25.7,29.90,ESE,122,0.0,0.0,16,0.00,,CLR,0.04,VWS V14.01,2013-07-25 22:12:00,
2013-07-25 18:17:00,74.8,25.7,29.90,SE,131,2.2,2.2,16,0.00,,CLR,0.04,VWS V14.01,2013-07-25 22:17:00,
2013-07-25 18:23:00,67.3,28.2,29.90,South,177,0.0,0.0,23,0.00,,CLR,0.04,VWS V14.01,2013-07-25 22:23:00,
2013-07-25 18:28:00,67.5,29.4,29.90,South,177,0.0,0.0,24,0.00,,CLR,0.04,VWS V14.01,2013-07-25 22:28:00,
2013-07-25 18:33:00,67.5,29.4,29.90,South,177,0.0,0.0,24,0.00,,CLR,0.04,VWS V14.01,2013-07-25 22:33:00,
2013-07-25 18:38:00,67.5,30.4,29.90,South,177,0.0,0.0,25,0.00,,CLR,0.04,VWS V14.01,2013-07-25 22:38:00,
2013-07-25 18:43:00,67.5,30.4,29.90,South,177,0.0,0.0,25,0.00,,CLR,0.04,VWS V14.01,2013-07-25 22:43:00,
2013-07-25 18:48:00,67.5,30.4,29.90,South,177,0.0,0.0,25,0.43,,CLR,0.47,VWS V14.01,2013-07-25 22:48:00,
2013-07-25 18:53:00,67.5,30.4,29.90,South,177,0.0,0.0,25,0.43,,CLR,0.47,VWS V14.01,2013-07-25 22:53:00,
2013-07-25 18:58:00,67.5,30.4,29.90,South,177,0.0,0.0,25,0.43,,CLR,0.47,VWS V14.01,2013-07-25 22:58:00,
2013-07-25 19:03:00,67.5,30.4,29.90,South,177,0.0,0.0,25,0.43,,BKN080,0.47,VWS V14.01,2013-07-25 23:03:00,
2013-07-25 19:08:00,67.5,30.4,29.90,South,177,0.0,0.0,25,0.43,,BKN080,0.47,VWS V14.01,2013-07-25 23:08:00,
2013-07-25 19:13:00,67.3,35.6,29.90,South,177,0.0,0.0,31,0.43,,BKN080,0.47,VWS V14.01,2013-07-25 23:13:00,
2013-07-25 19:18:00,67.5,38.1,29.90,South,177,0.0,0.0,34,0.43,,BKN080,0.47,VWS V14.01,2013-07-25 23:18:00,
2013-07-25 19:24:00,67.5,38.1,29.90,South,177,0.0,0.0,34,0.43,,BKN080,0.47,VWS V14.01,2013-07-25 23:24:00,
2013-07-25 19:29:00,67.3,37.2,29.90,South,177,0.0,0.0,33,0.43,,BKN080,0.47,VWS V14.01,2013-07-25 23:29:00,
2013-07-25 19:34:00,67.3,37.2,29.93,South,177,0.0,0.0,33,0.43,,BKN080,0.47,VWS V14.01,2013-07-25 23:34:00,
2013-07-25 19:39:00,66.9,36.1,29.93,NNW,340,0.0,0.0,32,0.43,,BKN080,0.47,VWS V14.01,2013-07-25 23:39:00,
2013-07-25 19:44:00,66.6,35.8,29.93,NNW,340,0.0,0.0,32,0.43,,BKN080,0.47,VWS V14.01,2013-07-25 23:44:00,
2013-07-25 19:49:00,66.6,35.8,29.93,NNW,340,0.0,0.0,32,0.00,,BKN080,0.47,VWS V14.01,2013-07-25 23:49:00,
2013-07-25 19:54:00,66.6,35.8,29.93,NNW,340,0.0,0.0,32,0.00,,BKN080,0.47,VWS V14.01,2013-07-25 23:54:00,
2013-07-25 19:59:00,66.4,36.4,29.93,NNW,340,0.0,0.0,33,0.00,,BKN080,0.47,VWS V14.01,2013-07-25 23:59:00,
2013-07-25 20:04:00,66.4,36.4,29.93,NNW,340,0.0,0.0,33,0.00,,OVC060,0.47,VWS V14.01,2013-07-26 00:04:00,
2013-07-25 20:09:00,66.4,36.4,29.93,NNW,340,0.0,0.0,33,0.00,,OVC060,0.47,VWS V14.01,2013-07-26 00:09:00,
2013-07-25 20:15:00,66.4,36.4,29.93,NNW,340,0.0,0.0,33,0.00,,OVC060,0.47,VWS V14.01,2013-07-26 00:15:00,
2013-07-25 20:20:00,66.4,36.4,29.93,NNW,340,0.0,0.0,33,0.00,,OVC060,0.47,VWS V14.01,2013-07-26 00:20:00,
2013-07-25 20:25:00,66.4,36.4,29.93,NNW,340,0.0,0.0,33,0.00,,OVC060,0.47,VWS V14.01,2013-07-26 00:25:00,
2013-07-25 20:30:00,66.4,36.4,29.93,NNW,340,0.0,0.0,33,0.00,,OVC060,0.47,VWS V14.01,2013-07-26 00:30:00,
2013-07-25 20:35:00,66.4,36.4,29.93,NNW,340,0.0,0.0,33,0.00,,OVC060,0.47,VWS V14.01,2013-07-26 00:35:00,
2013-07-25 20:40:00,66.4,36.4,29.93,NNW,340,0.0,0.0,33,0.00,,OVC060,0.47,VWS V14.01,2013-07-26 00:40:00,
2013-07-25 20:46:00,66.4,36.4,29.93,NNW,340,0.0,0.0,33,0.00,,OVC060,0.47,VWS V14.01,2013-07-26 00:46:00,
2013-07-25 20:51:00,66.4,36.4,29.93,NNW,340,0.0,0.0,33,0.00,,OVC060,0.47,VWS V14.01,2013-07-26 00:51:00,
2013-07-25 20:56:00,66.4,36.4,29.93,NNW,340,0.0,0.0,33,0.00,,OVC060,0.47,VWS V14.01,2013-07-26 00:56:00,
2013-07-25 21:01:00,66.4,36.4,29.93,NNW,340,0.0,0.0,33,0.00,,BKN060,0.47,VWS V14.01,2013-07-26 01:01:00,
2013-07-25 21:06:00,66.4,36.4,29.93,NNW,340,0.0,0.0,33,0.00,,BKN060,0.47,VWS V14.01,2013-07-26 01:06:00,
2013-07-25 21:11:00,66.4,36.4,29.93,NNW,340,0.0,0.0,33,0.00,,BKN060,0.47,VWS V14.01,2013-07-26 01:11:00,
2013-07-25 21:16:00,66.4,36.4,29.93,NNW,340,0.0,0.0,33,0.00,,BKN060,0.47,VWS V14.01,2013-07-26 01:16:00,
2013-07-25 21:21:00,66.4,36.4,29.93,NNW,340,0.0,0.0,33,0.00,,BKN060,0.47,VWS V14.01,2013-07-26 01:21:00,
2013-07-25 21:26:00,66.4,36.4,29.93,NNW,340,0.0,0.0,33,0.00,,BKN060,0.47,VWS V14.01,2013-07-26 01:26:00,
2013-07-25 21:31:00,66.4,36.4,29.93,NNW,340,0.0,0.0,33,0.00,,BKN060,0.47,VWS V14.01,2013-07-26 01:31:00,
2013-07-25 21:36:00,66.4,36.4,29.93,NNW,340,0.0,0.0,33,0.00,,BKN060,0.47,VWS V14.01,2013-07-26 01:36:00,
2013-07-25 21:42:00,66.4,36.4,29.93,NNW,340,0.0,0.0,33,0.00,,BKN060,0.47,VWS V14.01,2013-07-26 01:42:00,
2013-07-25 21:47:00,66.4,36.4,29.96,NNW,340,0.0,0.0,33,0.00,,BKN060,0.47,VWS V14.01,2013-07-26 01:47:00,
2013-07-25 21:52:00,66.4,36.4,29.96,NNW,340,0.0,0.0,33,0.00,,BKN060,0.47,VWS V14.01,2013-07-26 01:52:00,
2013-07-25 21:57:00,66.4,36.4,29.96,NNW,340,0.0,0.0,33,0.00,,BKN060,0.47,VWS V14.01,2013-07-26 01:57:00,
2013-07-25 22:02:00,66.4,36.4,29.96,NNW,340,0.0,0.0,33,0.00,,CLR,0.47,VWS V14.01,2013-07-26 02:02:00,
2013-07-25 22:07:00,66.4,36.4,29.96,NNW,340,0.0,0.0,33,0.00,,CLR,0.47,VWS V14.01,2013-07-26 02:07:00,
2013-07-25 22:12:00,66.4,36.4,29.96,NNW,340,0.0,0.0,33,0.00,,CLR,0.47,VWS V14.01,2013-07-26 02:12:00,
2013-07-25 22:17:00,66.4,36.4,29.96,NNW,340,0.0,0.0,33,0.00,,CLR,0.47,VWS V14.01,2013-07-26 02:17:00,
2013-07-25 22:22:00,66.4,36.4,29.96,NNW,340,0.0,0.0,33,0.00,,CLR,0.47,VWS V14.01,2013-07-26 02:22:00,
2013-07-25 22:27:00,66.4,36.4,29.96,NNW,340,0.0,0.0,33,0.00,,CLR,0.47,VWS V14.01,2013-07-26 02:27:00,
2013-07-25 22:32:00,66.4,36.4,29.96,NNW,340,0.0,0.0,33,0.00,,CLR,0.47,VWS V14.01,2013-07-26 02:32:00,
2013-07-25 22:37:00,66.4,36.4,29.96,NNW,340,0.0,0.0,33,0.00,,CLR,0.47,VWS V14.01,2013-07-26 02:37:00,
2013-07-25 22:42:00,66.4,36.4,29.96,NNW,340,0.0,0.0,33,0.00,,CLR,0.47,VWS V14.01,2013-07-26 02:42:00,
2013-07-25 22:47:00,66.4,36.4,29.96,NNW,340,0.0,0.0,33,0.00,,CLR,0.47,VWS V14.01,2013-07-26 02:47:00,
2013-07-25 22:52:00,66.4,36.4,29.96,NNW,340,0.0,0.0,33,0.00,,CLR,0.47,VWS V14.01,2013-07-26 02:52:00,
2013-07-25 22:58:00,66.4,36.4,29.96,NNW,340,0.0,0.0,33,0.00,,CLR,0.47,VWS V14.01,2013-07-26 02:58:00,
2013-07-25 23:03:00,66.4,36.4,29.96,NNW,340,0.0,0.0,33,0.00,,CLR,0.47,VWS V14.01,2013-07-26 03:03:00,
2013-07-25 23:08:00,66.4,36.4,29.96,NNW,340,0.0,0.0,33,0.00,,CLR,0.47,VWS V14.01,2013-07-26 03:08:00,
2013-07-25 23:13:00,66.4,36.4,29.96,NNW,340,0.0,0.0,33,0.00,,CLR,0.47,VWS V14.01,2013-07-26 03:13:00,
2013-07-25 23:18:00,66.4,36.4,29.96,NNW,340,0.0,0.0,33,0.00,,CLR,0.47,VWS V14.01,2013-07-26 03:18:00,
2013-07-25 23:23:00,66.4,36.4,29.96,NNW,340,0.0,0.0,33,0.00,,CLR,0.47,VWS V14.01,2013-07-26 03:23:00,
2013-07-25 23:28:00,66.4,36.4,29.96,NNW,340,0.0,0.0,33,0.00,,CLR,0.47,VWS V14.01,2013-07-26 03:28:00,
2013-07-25 23:33:00,66.4,36.4,29.96,NNW,340,0.0,0.0,33,0.00,,CLR,0.47,VWS V14.01,2013-07-26 03:33:00,
2013-07-25 23:38:00,66.4,36.4,29.96,NNW,340,0.0,0.0,33,0.00,,CLR,0.47,VWS V14.01,2013-07-26 03:38:00,
2013-07-25 23:43:00,66.4,36.4,29.96,NNW,340,0.0,0.0,33,0.00,,CLR,0.47,VWS V14.01,2013-07-26 03:43:00,
2013-07-25 23:48:00,66.4,36.4,29.96,NNW,340,0.0,0.0,33,0.00,,CLR,0.47,VWS V14.01,2013-07-26 03:48:00,
2013-07-25 23:54:00,66.4,36.4,29.96,NNW,340,0.0,0.0,33,0.00,,CLR,0.47,VWS V14.01,2013-07-26 03:54:00,
2013-07-25 23:59:00,66.4,36.4,29.96,NNW,340,0.0,0.0,33,0.00,,CLR,0.47,VWS V14.01,2013-07-26 03:59:00,